Hourly Data Report for December 12, 2017

OTTAWA INTL A
ONTARIO

45°19'00.000" N
75°40'00.000" W
114.90 m
6106001
71628
YOW

Download Data

Hourly Data (December 2017)
Hourly Data Report for December 12, 2017
TIME Temp Definition
°C
Dew Point Definition
°C
Rel Hum Definition
%
Wind Dir Definition
10's deg

Wind Spd Definition
km/h
Visibility Definition
km
Stn Press Definition
kPa
Hmdx Definition


Wind Chill Definition


Weather Definition


00:00 -10.9 -15.2 71 7 17 12.9 99.89   -18 Snow
01:00 -11.0 -13.5 82 7 19 2.8 99.75   -19 Snow
02:00 -10.8 -12.8 85 6 23 2.0 99.63   -19 Snow
03:00 -10.5 -12.6 85 7 23 2.4 99.51   -19 Snow
04:00 -10.4 -12.5 85 5 25 4.0 99.33   -19 Snow
05:00 -10.8 -12.9 84 6 26 3.2 99.20   -20 Snow
06:00 -11.0 -13.1 85 6 28 1.6 99.13   -21 Snow
07:00 -10.8 -12.8 85 5 24 1.6 99.03   -20 Snow
08:00 -10.6 -12.7 85 6 26 1.6 98.95   -20 Snow
09:00 -10.1 -12.2 85 5 23 1.6 98.87   -19 Snow
10:00 -9.5 -11.8 83 6 25 3.2 98.79   -18 Snow
11:00 -8.8 -11.2 83 6 21 1.6 98.70   -17 Snow
12:00 -8.2 -10.8 82 6 23 3.2 98.58   -16 Snow
13:00 -7.6 -9.9 84 5 27 2.4 98.47   -16 Snow
14:00 -7.0 -9.2 85 5 19 3.2 98.46   -14 Snow
15:00 -6.8 -8.7 86 35 13 3.2 98.46   -12 Snow
16:00 -6.8 -8.3 89 32 8 1.6 98.48   -11 Snow
17:00 -6.7 -8.5 87 33 17 1.6 98.49   -13 Snow
18:00 -7.1 -8.7 89 32 11 8.1 98.52   -12 Snow
19:00 -8.0 -9.8 87 31 17 3.2 98.53   -15 Snow
20:00 -8.3 -9.8 89 30 10 4.8 98.54   -13 Snow
21:00 -9.0 -10.5 88 27 13 11.3 98.52   -15 Snow
22:00 -9.6 -11.4 87 27 16 16.1 98.48   -16 Snow
23:00 -9.9 -12.5 82 31 16 24.1 98.44   -17 Snow

Notes on Data Quality.

Legend

  • E = Estimated
  • M = Missing
  • NA = Not Available*
  • [empty] = Indicates an unobserved value
Date modified: